• In Netherlands
  • List of Countries
  • For 7 days
  • Water Temperature
  • Satellite Maps
  • Weather Map
  • Weather Widgets
  • user-avatar
    Login

    Hourly Weather Ganja

    Today, 25 July, Tuesday

    Time Temperature Precipitation Wind Pressure Humidity
    00:00 +25°C° 0.1 mm 4 mps 722 mmHg 64%
    01:00 +25°C° 0 mm 3 mps 722 mmHg 66%
    02:00 +24°C° 0 mm 3 mps 722 mmHg 67%
    03:00 +24°C° 0 mm 3 mps 721 mmHg 68%
    04:00 +24°C° 0 mm 2 mps 721 mmHg 66%
    05:00 +24°C° 0 mm 2 mps 721 mmHg 65%
    06:00 +24°C° 0 mm 1 mps 721 mmHg 64%
    07:00 +26°C° 0 mm 1 mps 721 mmHg 60%
    08:00 +27°C° 0 mm 1 mps 721 mmHg 55%
    09:00 +28°C° 0 mm 2 mps 721 mmHg 53%
    10:00 +29°C° 0 mm 2 mps 721 mmHg 49%
    11:00 +31°C° 0 mm 2 mps 720 mmHg 46%
    12:00 +32°C° 0 mm 2 mps 720 mmHg 43%
    13:00 +34°C° 0.1 mm 2 mps 720 mmHg 41%
    14:00 +34°C° 0.1 mm 2 mps 719 mmHg 40%
    15:00 +34°C° 0 mm 2 mps 719 mmHg 40%
    16:00 +34°C° 0.1 mm 2 mps 719 mmHg 41%
    17:00 +34°C° 0.1 mm 2 mps 719 mmHg 42%
    18:00 +32°C° 0.1 mm 2 mps 720 mmHg 42%
    19:00 +31°C° 0 mm 2 mps 720 mmHg 46%
    20:00 +29°C° 0 mm 1 mps 720 mmHg 49%
    21:00 +28°C° 0 mm 1 mps 720 mmHg 52%
    22:00 +27°C° 0 mm 1 mps 721 mmHg 53%
    23:00 +27°C° 0 mm 1 mps 721 mmHg 53%

    Tomorrow, 26 July, Wednesday

    Time Temperature Precipitation Wind Pressure Humidity
    00:00 +26°C° 0 mm 2 mps 721 mmHg 53%
    01:00 +26°C° 0.2 mm 2 mps 721 mmHg 54%
    02:00 +25°C° 0.2 mm 1 mps 721 mmHg 54%
    03:00 +25°C° 0.2 mm 1 mps 721 mmHg 54%
    04:00 +25°C° 0.2 mm 1 mps 721 mmHg 53%
    05:00 +25°C° 0.2 mm 2 mps 721 mmHg 52%
    06:00 +26°C° 0.2 mm 2 mps 721 mmHg 51%
    07:00 +27°C° 0 mm 2 mps 721 mmHg 46%
    08:00 +29°C° 0 mm 2 mps 721 mmHg 41%
    09:00 +31°C° 0 mm 2 mps 721 mmHg 36%
    10:00 +32°C° 0 mm 2 mps 721 mmHg 35%
    11:00 +34°C° 0 mm 2 mps 721 mmHg 33%
    12:00 +35°C° 0 mm 2 mps 720 mmHg 32%
    13:00 +36°C° 0 mm 2 mps 720 mmHg 32%
    14:00 +36°C° 0 mm 3 mps 720 mmHg 31%
    15:00 +37°C° 0 mm 3 mps 720 mmHg 31%
    16:00 +36°C° 0 mm 3 mps 720 mmHg 33%
    17:00 +36°C° 0 mm 3 mps 720 mmHg 35%
    18:00 +36°C° 0 mm 3 mps 720 mmHg 37%
    19:00 +34°C° 0.1 mm 3 mps 721 mmHg 41%
    20:00 +31°C° 0.1 mm 3 mps 721 mmHg 44%
    21:00 +29°C° 0.1 mm 3 mps 722 mmHg 47%
    22:00 +29°C° 0 mm 3 mps 722 mmHg 49%
    23:00 +28°C° 0 mm 3 mps 722 mmHg 51%

    Day after tomorrow, 27 July, Thursday

    Time Temperature Precipitation Wind Pressure Humidity
    00:00 +28°C° 0 mm 3 mps 723 mmHg 52%
    01:00 +27°C° 0 mm 3 mps 723 mmHg 54%
    02:00 +26°C° 0 mm 2 mps 723 mmHg 55%
    03:00 +26°C° 0 mm 1 mps 723 mmHg 57%
    04:00 +26°C° 0 mm 1 mps 723 mmHg 56%
    05:00 +26°C° 0 mm 1 mps 723 mmHg 55%
    06:00 +26°C° 0 mm 1 mps 723 mmHg 54%
    07:00 +28°C° 0 mm 1 mps 723 mmHg 50%
    08:00 +29°C° 0 mm 1 mps 723 mmHg 46%
    09:00 +31°C° 0 mm 2 mps 723 mmHg 43%
    10:00 +32°C° 0 mm 2 mps 723 mmHg 40%
    11:00 +34°C° 0 mm 2 mps 723 mmHg 37%
    12:00 +35°C° 0 mm 2 mps 723 mmHg 35%
    13:00 +36°C° 0 mm 3 mps 722 mmHg 33%
    14:00 +37°C° 0 mm 3 mps 722 mmHg 32%
    15:00 +38°C° 0 mm 3 mps 722 mmHg 31%
    16:00 +37°C° 0 mm 3 mps 722 mmHg 32%
    17:00 +37°C° 0 mm 3 mps 722 mmHg 33%
    18:00 +37°C° 0 mm 3 mps 722 mmHg 34%
    19:00 +35°C° 0 mm 3 mps 722 mmHg 36%
    20:00 +33°C° 0 mm 3 mps 723 mmHg 39%
    21:00 +31°C° 0 mm 3 mps 723 mmHg 42%
    22:00 +30°C° 0 mm 3 mps 723 mmHg 43%
    23:00 +29°C° 0 mm 3 mps 723 mmHg 43%

    28 July, Friday

    Time Temperature Precipitation Wind Pressure Humidity
    00:00 +28°C° 0 mm 3 mps 723 mmHg 44%
    01:00 +28°C° 0 mm 3 mps 723 mmHg 44%
    02:00 +27°C° 0 mm 2 mps 723 mmHg 45%
    03:00 +27°C° 0 mm 2 mps 723 mmHg 45%
    04:00 +27°C° 0 mm 2 mps 723 mmHg 45%
    05:00 +27°C° 0 mm 2 mps 723 mmHg 44%
    06:00 +28°C° 0 mm 2 mps 723 mmHg 44%
    07:00 +29°C° 0 mm 2 mps 723 mmHg 40%
    08:00 +31°C° 0 mm 2 mps 723 mmHg 37%
    09:00 +34°C° 0 mm 2 mps 723 mmHg 33%
    10:00 +35°C° 0 mm 2 mps 722 mmHg 31%
    11:00 +36°C° 0 mm 2 mps 722 mmHg 30%
    12:00 +38°C° 0 mm 2 mps 722 mmHg 28%
    13:00 +38°C° 0 mm 2 mps 721 mmHg 27%
    14:00 +39°C° 0 mm 2 mps 721 mmHg 27%
    15:00 +40°C° 0 mm 2 mps 720 mmHg 26%
    16:00 +39°C° 0 mm 2 mps 720 mmHg 28%
    17:00 +39°C° 0 mm 2 mps 721 mmHg 29%
    18:00 +39°C° 0 mm 2 mps 721 mmHg 31%
    19:00 +37°C° 0 mm 2 mps 721 mmHg 33%
    20:00 +35°C° 0 mm 2 mps 721 mmHg 35%
    21:00 +32°C° 0 mm 2 mps 722 mmHg 37%
    22:00 +31°C° 0 mm 2 mps 722 mmHg 38%
    23:00 +31°C° 0 mm 2 mps 722 mmHg 38%

    29 July, Saturday

    Time Temperature Precipitation Wind Pressure Humidity
    00:00 +30°C° 0 mm 2 mps 722 mmHg 39%
    01:00 +29°C° 0 mm 2 mps 722 mmHg 40%
    02:00 +29°C° 0 mm 1 mps 722 mmHg 40%
    03:00 +28°C° 0 mm 1 mps 722 mmHg 41%
    04:00 +28°C° 0 mm 2 mps 722 mmHg 40%
    05:00 +29°C° 0 mm 2 mps 722 mmHg 39%
    06:00 +29°C° 0 mm 3 mps 722 mmHg 38%
    07:00 +31°C° 0 mm 3 mps 722 mmHg 35%
    08:00 +34°C° 0 mm 3 mps 722 mmHg 31%
    09:00 +37°C° 0 mm 3 mps 722 mmHg 27%
    10:00 +38°C° 0 mm 3 mps 722 mmHg 25%
    11:00 +39°C° 0 mm 3 mps 722 mmHg 24%
    12:00 +40°C° 0 mm 3 mps 721 mmHg 23%
    13:00 +42°C° 0 mm 3 mps 721 mmHg 22%
    14:00 +42°C° 0 mm 3 mps 721 mmHg 21%
    15:00 +42°C° 0 mm 2 mps 721 mmHg 20%
    16:00 +41°C° 0 mm 2 mps 721 mmHg 22%
    17:00 +41°C° 0 mm 2 mps 721 mmHg 23%
    18:00 +40°C° 0 mm 2 mps 721 mmHg 24%
    19:00 +38°C° 0 mm 2 mps 722 mmHg 27%
    20:00 +36°C° 0 mm 2 mps 722 mmHg 30%
    21:00 +34°C° 0 mm 3 mps 723 mmHg 33%
    22:00 +33°C° 0 mm 3 mps 723 mmHg 38%
    23:00 +31°C° 0 mm 3 mps 723 mmHg 43%

    30 July, Sunday

    Time Temperature Precipitation Wind Pressure Humidity
    00:00 +30°C° 0 mm 4 mps 724 mmHg 48%
    01:00 +29°C° 0 mm 4 mps 724 mmHg 50%
    02:00 +29°C° 0 mm 4 mps 724 mmHg 52%
    03:00 +28°C° 0 mm 4 mps 724 mmHg 54%
    04:00 +28°C° 0 mm 4 mps 725 mmHg 54%
    05:00 +28°C° 0 mm 4 mps 725 mmHg 54%
    06:00 +28°C° 0 mm 4 mps 725 mmHg 54%
    07:00 +30°C° 0 mm 4 mps 725 mmHg 49%
    08:00 +32°C° 0 mm 4 mps 725 mmHg 44%
    09:00 +34°C° 0 mm 5 mps 725 mmHg 39%
    10:00 +35°C° 0 mm 4 mps 725 mmHg 36%
    11:00 +36°C° 0 mm 3 mps 725 mmHg 34%
    12:00 +37°C° 0 mm 3 mps 725 mmHg 32%
    13:00 +37°C° 0 mm 3 mps 724 mmHg 32%
    14:00 +38°C° 0 mm 2 mps 724 mmHg 31%
    15:00 +38°C° 0 mm 2 mps 724 mmHg 30%
    16:00 +38°C° 0 mm 2 mps 724 mmHg 31%
    17:00 +38°C° 0 mm 2 mps 724 mmHg 33%
    18:00 +37°C° 0 mm 2 mps 725 mmHg 34%
    19:00 +35°C° 0 mm 3 mps 725 mmHg 38%
    20:00 +34°C° 0 mm 3 mps 726 mmHg 43%
    21:00 +32°C° 0 mm 4 mps 726 mmHg 47%
    22:00 +30°C° 0.1 mm 3 mps 727 mmHg 50%
    23:00 +29°C° 0.1 mm 3 mps 727 mmHg 53%
    Show more